Monterey, CA

8:19 AM PDT on October 18, 2017 (GMT -0700)
Monterey Peninsula

Weather History for KMRY - September, 2013

Change the Weather History Date:

Friday, September 27, 2013

  Actual Average Record
Temperature  
Mean Temperature 60 °F 60 °F  
Max Temperature 72 °F 69 °F 88 °F (2017)
Min Temperature 47 °F 52 °F 47 °F (1998)
Degree Days  
Heating Degree Days 5    
Month to date heating degree days 54  
Since 1 July heating degree days 240  
Cooling Degree Days 0    
Month to date cooling degree days 9  
Year to date cooling degree days 35  
Growing Degree Days 9 (Base 50)    
Moisture  
Dew Point 40 °F    
Average Humidity 47    
Maximum Humidity 65    
Minimum Humidity 29    
Precipitation  
Precipitation 0.00 in - 0.01 in (1998)
Month to date precipitation 0.03  
Year to date precipitation 3.28  
Since 1 July precipitation 0.13  
Sea Level Pressure  
Sea Level Pressure 30.09 in    
Wind  
Wind Speed 4 mph (NNW)    
Max Wind Speed 12 mph    
Max Gust Speed 15 mph    
Visibility 10 miles    
Events      
T = Trace of Precipitation, MM = Missing Value Source: NWS Daily Summary

Daily Weather History Graph

Daily Weather History Graph

Search for Another Location

Airport or City:

Trip Planner

Search our weather history database for the weather conditions in past years. The results will help you decide how hot, cold, wet, or windy it might be!

Date:

Astronomy

Sep. 27, 2013 Rise Set
Actual Time 6:59 AM PDT 6:56 PM PDT
Civil Twilight 6:33 AM PDT 7:21 PM PDT
Nautical Twilight 6:03 AM PDT 7:51 PM PDT
Astronomical Twilight 5:33 AM PDT 8:22 PM PDT
Moon 12:08 AM PDT (9/27) 2:30 PM PDT (9/27)
Length of Visible Light 12h 48m
Length of Day
11h 56m
Last Quarter, 44% of the Moon is Illuminated
Sep 27
Last Quarter
Oct 4
New
Oct 11
First Quarter
Oct 18
Full
Oct 26
Last Quarter

Hourly Weather History & Observations

Time (PDT) Temp. Dew Point Humidity Pressure Visibility Wind Dir Wind Speed Gust Speed Precip Events Conditions
12:54 AM 53.1 °F 37.9 °F 57% 30.03 in 10.0 mi Calm Calm - N/A   Clear
1:54 AM 53.1 °F 39.0 °F 59% 30.05 in 10.0 mi Calm Calm - N/A   Clear
2:54 AM 51.1 °F 39.0 °F 63% 30.05 in 10.0 mi Calm Calm - N/A   Clear
3:54 AM 48.0 °F 36.0 °F 63% 30.05 in 10.0 mi East 4.6 mph - N/A   Clear
4:54 AM 48.0 °F 36.0 °F 63% 30.05 in 10.0 mi East 3.5 mph - N/A   Clear
5:54 AM 46.9 °F 35.1 °F 63% 30.06 in 10.0 mi ENE 3.5 mph - N/A   Clear
6:54 AM 48.0 °F 35.1 °F 61% 30.09 in 10.0 mi East 3.5 mph - N/A   Clear
7:54 AM 51.1 °F 36.0 °F 56% 30.10 in 10.0 mi Calm Calm - N/A   Clear
8:54 AM 59.0 °F 39.9 °F 49% 30.12 in 10.0 mi Calm Calm - N/A   Clear
9:54 AM 64.0 °F 46.0 °F 52% 30.13 in 8.0 mi West 3.5 mph - N/A   Clear
10:54 AM 64.9 °F 46.9 °F 52% 30.14 in 10.0 mi West 4.6 mph - N/A   Clear
11:54 AM 68.0 °F 43.0 °F 40% 30.13 in 10.0 mi WNW 4.6 mph - N/A   Clear
12:54 PM 72.0 °F 37.0 °F 28% 30.12 in 10.0 mi NW 5.8 mph - N/A   Clear
1:54 PM 70.0 °F 39.9 °F 33% 30.11 in 10.0 mi WNW 10.4 mph - N/A   Clear
2:54 PM 68.0 °F 46.9 °F 47% 30.09 in 10.0 mi NW 8.1 mph - N/A   Clear
3:54 PM 69.1 °F 44.1 °F 40% 30.08 in 10.0 mi WNW 5.8 mph - N/A   Clear
4:54 PM 68.0 °F 44.1 °F 42% 30.09 in 10.0 mi WNW 8.1 mph - N/A   Clear
5:54 PM 64.9 °F 48.0 °F 54% 30.09 in 10.0 mi Calm Calm - N/A   Clear
6:54 PM 63.0 °F 43.0 °F 48% 30.09 in 10.0 mi Variable 3.5 mph - N/A   Clear
7:54 PM 63.0 °F 39.9 °F 43% 30.10 in 10.0 mi South 3.5 mph - N/A   Clear
8:54 PM 62.1 °F 36.0 °F 38% 30.11 in 10.0 mi SSE 4.6 mph - N/A   Clear
9:54 PM 63.0 °F 35.1 °F 35% 30.11 in 10.0 mi Calm Calm - N/A   Clear
10:54 PM 60.1 °F 34.0 °F 38% 30.10 in 10.0 mi East 6.9 mph - N/A   Clear
11:54 PM 60.1 °F 34.0 °F 38% 30.10 in 10.0 mi ENE 5.8 mph - N/A   Clear